This is the latest recevied weather packets stored in our database for station/object WB3EGK. If no packets are shown the sender has not sent any weather packets the latest 10 day(s).
| Time | Temp. | Humidity | Pressure | Rain* | Wind** | Luminosity | Snow |
|---|---|---|---|---|---|---|---|
| 1777576054 | 7.22° C | 1% | 1010.8 hPa | 0 mm | - | 75 W/m² | - |
| 1777575751 | 7.78° C | 1% | 1010.7 hPa | 0 mm | - | 88 W/m² | - |
| 1777575447 | 7.78° C | 1% | 1010.8 hPa | 0 mm | - | 239 W/m² | - |
| 1777575143 | 7.78° C | 1% | 1010.8 hPa | 0 mm | - | 124 W/m² | - |
| 1777574839 | 7.78° C | 1% | 1010.8 hPa | 0 mm | - | 160 W/m² | - |
| 1777574537 | 7.78° C | 1% | 1011 hPa | 0 mm | - | 247 W/m² | - |
| 1777574233 | 7.22° C | 1% | 1010.7 hPa | 0 mm | - | 421 W/m² | - |
| 1777573927 | 7.22° C | 1% | 1010.7 hPa | 0 mm | - | 246 W/m² | - |
| 1777573623 | 7.22° C | 1% | 1010.9 hPa | 0 mm | - | 153 W/m² | - |
| 1777573319 | 7.78° C | 1% | 1010.6 hPa | 0 mm | - | 58 W/m² | - |
| 1777573015 | 7.78° C | 1% | 1010.7 hPa | 0 mm | - | 75 W/m² | - |
| 1777572711 | 7.78° C | 1% | 1010.6 hPa | 0 mm | - | 197 W/m² | - |
| 1777572406 | 7.78° C | 1% | 1010.7 hPa | 0 mm | - | 258 W/m² | - |
| 1777572102 | 7.22° C | 1% | 1010.4 hPa | 0 mm | - | 227 W/m² | - |
| 1777571797 | 7.22° C | 1% | 1010.5 hPa | 0 mm | - | 201 W/m² | - |
| 1777571494 | 7.78° C | 1% | 1010.6 hPa | 0 mm | - | 127 W/m² | - |
| 1777571191 | 7.78° C | 1% | 1010.5 hPa | 0 mm | - | 203 W/m² | - |
| 1777570886 | 7.78° C | 1% | 1010.6 hPa | 0 mm | - | 387 W/m² | - |
| 1777570582 | 7.22° C | 1% | 1010.7 hPa | 0 mm | - | 247 W/m² | - |
| 1777570280 | 6.67° C | 1% | 1010.5 hPa | 0 mm | - | 232 W/m² | - |
| 1777569975 | 6.67° C | 1% | 1010.6 hPa | 0 mm | - | 134 W/m² | - |
| 1777569671 | 6.67° C | 1% | 1010.6 hPa | 0 mm | - | 104 W/m² | - |
| 1777569367 | 6.67° C | 1% | 1010.5 hPa | 0 mm | - | 85 W/m² | - |
| 1777569064 | 6.67° C | 1% | 1010.5 hPa | 0 mm | - | 127 W/m² | - |
| 1777568760 | 6.67° C | 1% | 1010.6 hPa | 0 mm | - | 154 W/m² | - |
* Rain latest hour (hover to see other rain measurements)
** Current wind speed in m/s (hover to see current wind gust speed)